This is the latest recevied weather packets stored in our database for station/object KC3SOZ. If no packets are shown the sender has not sent any weather packets the latest 10 day(s).
| Time | Temp. | Humidity | Pressure | Rain* | Wind** | Luminosity | Snow |
|---|---|---|---|---|---|---|---|
| 1777641778 | 8.89° C | 75% | 1015.2 hPa | 0 mm | - | 454 W/m² | - |
| 1777641478 | 8.89° C | 77% | 1015.2 hPa | 0 mm | - | 438 W/m² | - |
| 1777641174 | 8.89° C | 79% | 1015.3 hPa | 0 mm | - | 423 W/m² | - |
| 1777640870 | 8.89° C | 82% | 1015.5 hPa | 0 mm | - | 407 W/m² | - |
| 1777640567 | 8.33° C | 79% | 1015.6 hPa | 0 mm | - | 389 W/m² | - |
| 1777640263 | 8.33° C | 81% | 1015.3 hPa | 0 mm | - | 380 W/m² | - |
| 1777639960 | 7.78° C | 83% | 1015.7 hPa | 0 mm | - | 356 W/m² | - |
| 1777639657 | 7.78° C | 84% | 1015.7 hPa | 0 mm | - | 340 W/m² | - |
| 1777639355 | 7.78° C | 86% | 1015.5 hPa | 0 mm | - | 322 W/m² | - |
| 1777639050 | 7.22° C | 86% | 1015.7 hPa | 0 mm | - | 306 W/m² | - |
| 1777638747 | 6.67° C | 89% | 1015.9 hPa | 0 mm | - | 289 W/m² | - |
| 1777638442 | 6.67° C | 90% | 1015.9 hPa | 0 mm | - | 57 W/m² | - |
| 1777638140 | 6.11° C | 91% | 1016 hPa | 0 mm | - | 71 W/m² | - |
| 1777637835 | 6.11° C | 93% | 1016.1 hPa | 0 mm | - | 179 W/m² | - |
| 1777637532 | 5.56° C | 94% | 1016.3 hPa | 0 mm | - | 152 W/m² | - |
| 1777637230 | 5° C | 95% | 1016 hPa | 0 mm | - | 131 W/m² | - |
| 1777636927 | 5° C | 97% | 1015.9 hPa | 0 mm | - | 120 W/m² | - |
| 1777636622 | 4.44° C | 98% | 1015.9 hPa | 0 mm | - | 110 W/m² | - |
| 1777636319 | 4.44° C | 99% | 1016.1 hPa | 0 mm | - | 101 W/m² | - |
| 1777636013 | 5° C | 99% | 1016.3 hPa | 0 mm | - | 90 W/m² | - |
| 1777635709 | 3.89° C | 99% | 1016.1 hPa | 0 mm | - | 84 W/m² | - |
| 1777635407 | 3.89° C | 99% | 1015.9 hPa | 0 mm | - | 78 W/m² | - |
| 1777635103 | 3.33° C | 99% | 1016 hPa | 0 mm | - | 70 W/m² | - |
| 1777634799 | 3.33° C | 99% | 1015.9 hPa | 0 mm | - | 63 W/m² | - |
| 1777634497 | 2.78° C | 99% | 1015.9 hPa | 0 mm | - | 59 W/m² | - |
* Rain latest hour (hover to see other rain measurements)
** Current wind speed in m/s (hover to see current wind gust speed)